EW9515 Weather Reports


Display with metric or nautical units.
time (UTC)temp
F
wind
direction
speed
MPH
gust
MPH
rain 1hr
in
rain 24hr
in
rain mn
in
humidity
%
barometer
mb
20260509223429 70 203 6.0 9.0 0.00 0.00 0.00 76 1023.6
20260509222430 69 180 4.0 5.0 0.00 0.00 0.00 77 1023.6
20260509221429 69 180 5.0 8.0 0.00 0.00 0.00 78 1023.5
20260509220449 68 203 3.0 5.0 0.00 0.00 0.00 78 1023.5
20260509215429 67 225 3.0 5.0 0.00 0.00 0.00 79 1023.5
20260509214428 67 203 3.0 4.0 0.00 0.00 0.00 80 1023.3
20260509213429 66 203 3.0 5.0 0.00 0.00 0.00 81 1023.2
20260509212428 65 203 2.0 3.0 0.00 0.00 0.00 82 1023.1
20260509211451 65 225 3.0 4.0 0.00 0.00 0.00 83 1023.0
20260509210509 64 180 2.0 3.0 0.00 0.00 0.00 84 1022.8
20260509205429 63 180 1.0 1.0 0.00 0.00 0.00 84 1022.7
20260509204428 63 180 1.0 2.0 0.00 0.00 0.00 84 1022.6
20260509203429 63 0.0 1.0 0.00 0.00 0.00 83 1022.6
20260509202453 64 0.0 1.0 0.00 0.00 0.00 83 1022.4
20260509201449 64 180 1.0 2.0 0.00 0.00 0.00 83 1022.3
20260509200428 64 180 1.0 2.0 0.00 0.00 0.00 83 1022.2
20260509195428 64 180 1.0 2.0 0.00 0.00 0.00 83 1022.2
20260509194429 64 203 2.0 3.0 0.00 0.00 0.00 83 1022.1
20260509193429 64 203 2.0 3.0 0.00 0.00 0.00 82 1021.8
20260509192429 64 180 1.0 3.0 0.00 0.00 0.00 82 1021.9
20260509191428 64 203 3.0 4.0 0.00 0.00 0.00 81 1021.9
20260509190429 63 203 3.0 5.0 0.00 0.00 0.00 83 1021.9
20260509185429 62 158 3.0 4.0 0.00 0.00 0.00 86 1021.7
20260509184430 60 90 2.0 3.0 0.00 0.00 0.00 88 1021.7
20260509183428 58 90 1.0 2.0 0.00 0.00 0.00 88 1021.7
20260509182429 57 0.0 0.0 0.00 0.00 0.00 88 1021.6
20260509181428 57 0.0 0.0 0.00 0.00 0.00 88 1021.6
20260509180433 57 0.0 0.0 0.00 0.00 0.00 87 1021.5
20260509175449 57 0.0 1.0 0.00 0.00 0.00 87 1021.4
20260509174428 57 0.0 0.0 0.00 0.00 0.00 87 1021.3
20260509173429 58 0.0 0.0 0.00 0.00 0.00 87 1021.2
20260509172434 58 0.0 0.0 0.00 0.00 0.00 86 1021.1
20260509171434 58 0.0 0.0 0.00 0.00 0.00 86 1021.2
20260509170428 58 0.0 1.0 0.00 0.00 0.00 86 1021.1
20260509165447 58 0.0 0.0 0.00 0.00 0.00 86 1021.2
20260509164433 58 0.0 0.0 0.00 0.00 0.00 86 1021.1
20260509163449 59 0.0 0.0 0.00 0.00 0.00 86 1021.2
20260509162428 59 0.0 0.0 0.00 0.00 0.00 86 1021.3
20260509161429 58 0.0 0.0 0.00 0.00 0.00 87 1021.3
20260509160448 58 0.0 1.0 0.00 0.00 0.00 88 1021.3
20260509155428 57 0.0 1.0 0.00 0.00 0.00 89 1021.4
20260509154428 56 0.0 1.0 0.00 0.00 0.00 89 1021.5
20260509153428 56 0.0 0.0 0.00 0.00 0.00 89 1021.6
20260509152429 56 0.0 0.0 0.00 0.00 0.00 88 1021.6
20260509151448 56 0.0 0.0 0.00 0.00 0.00 88 1021.6
20260509150428 56 0.0 0.0 0.00 0.00 0.00 88 1021.7
20260509145428 56 0.0 1.0 0.00 0.00 0.00 88 1021.7
20260509144453 56 0.0 1.0 0.00 0.00 0.00 88 1021.8
20260509143430 56 0.0 0.0 0.00 0.00 0.00 87 1021.8
20260509142429 56 0.0 0.0 0.00 0.00 0.00 87 1021.8
20260509141430 56 0.0 0.0 0.00 0.00 0.00 87 1021.8
20260509140430 56 0.0 0.0 0.00 0.00 0.00 86 1021.9
20260509135419 56 0.0 0.0 0.00 0.00 0.00 86 1022.0
20260509134429 57 0.0 1.0 0.00 0.00 0.00 86 1022.0
20260509133419 57 0.0 0.0 0.00 0.00 0.00 85 1022.0
20260509132430 57 0.0 1.0 0.00 0.00 0.00 84 1022.0
20260509131420 58 0.0 1.0 0.00 0.00 0.00 84 1022.0
20260509130429 58 0.0 0.0 0.00 0.00 0.00 83 1022.0
20260509125420 58 90 1.0 2.0 0.00 0.00 0.00 82 1022.0
20260509124430 59 90 1.0 1.0 0.00 0.00 0.00 81 1021.9
20260509123421 59 0.0 0.0 0.00 0.00 0.00 80 1022.0
20260509122454 60 0.0 0.0 0.00 0.00 0.00 80 1021.9
20260509121419 60 90 1.0 2.0 0.00 0.00 0.00 80 1021.8
20260509120428 60 90 1.0 2.0 0.00 0.00 0.00 81 1021.7
20260509115421 60 90 1.0 2.0 0.00 0.00 0.00 81 1021.7
20260509114429 60 90 1.0 2.0 0.00 0.00 0.00 81 1021.8
20260509113426 60 90 1.0 2.0 0.00 0.00 0.00 83 1021.9
20260509112437 59 0.0 1.0 0.00 0.00 0.00 83 1021.8
20260509111421 60 0.0 0.0 0.00 0.00 0.00 83 1022.0
20260509110431 60 0.0 0.0 0.00 0.00 0.00 82 1022.0
20260509105428 60 90 1.0 2.0 0.00 0.00 0.00 82 1022.0
20260509104421 61 0.0 1.0 0.00 0.00 0.00 82 1022.2
20260509103423 61 0.0 0.0 0.00 0.00 0.00 81 1022.1
20260509102428 61 0.0 0.0 0.00 0.00 0.00 80 1022.1
20260509101600 62 0.0 0.0 0.00 0.00 0.00 79 1022.0
20260509100429 62 0.0 0.0 0.00 0.00 0.00 79 1021.8
20260509095428 63 0.0 0.0 0.00 0.00 0.00 78 1021.7
20260509094439 64 0.0 0.0 0.00 0.00 0.00 77 1021.6
20260509093429 64 0.0 0.0 0.00 0.00 0.00 77 1021.6
20260509092433 64 0.0 0.0 0.00 0.00 0.00 76 1021.5
20260509091419 65 0.0 0.0 0.00 0.00 0.00 76 1021.5
20260509090421 65 0.0 1.0 0.00 0.00 0.00 75 1021.2
20260509085442 65 0.0 1.0 0.00 0.00 0.00 75 1021.2
20260509084449 65 90 1.0 1.0 0.00 0.00 0.00 75 1021.1
20260509083420 66 90 1.0 1.0 0.00 0.00 0.00 74 1021.0
20260509082419 67 89 2.0 0.0 0.00 0.00 0.00 72 1020.8
20260509081438 67 0.0 1.0 0.00 0.00 0.00 72 1020.7
20260509080417 67 90 1.0 1.0 0.00 0.00 0.00 72 1020.7
20260509075428 67 90 1.0 1.0 0.00 0.00 0.00 72 1020.6
20260509074448 68 90 1.0 1.0 0.00 0.00 0.00 73 1020.4
20260509073426 69 0.0 1.0 0.00 0.00 0.00 71 1020.4
20260509072428 70 0.0 0.0 0.00 0.00 0.00 70 1020.2
20260509071428 71 0.0 0.0 0.00 0.00 0.00 68 1020.1
20260509070429 71 0.0 1.0 0.00 0.00 0.00 66 1019.9
20260509065428 72 90 1.0 2.0 0.00 0.00 0.00 66 1019.8
20260509064417 72 90 1.0 2.0 0.00 0.00 0.00 65 1019.7
20260509063419 72 90 2.0 3.0 0.00 0.00 0.00 64 1019.6
20260509062440 73 90 1.0 3.0 0.00 0.00 0.00 63 1019.5
20260509061418 73 68 3.0 4.0 0.00 0.00 0.00 61 1019.4
20260509060418 74 113 1.0 3.0 0.00 0.00 0.00 61 1019.4
20260509055418 74 90 3.0 4.0 0.00 0.00 0.00 61 1019.3
20260509054421 75 113 2.0 3.0 0.00 0.00 0.00 60 1019.4
20260509053419 75 158 1.0 2.0 0.00 0.00 0.00 56 1019.3
20260509052518 75 158 2.0 3.0 0.00 0.00 0.00 56 1019.3
20260509051418 75 113 1.0 2.0 0.00 0.00 0.00 59 1019.2
20260509050424 74 0.0 1.0 0.00 0.00 0.00 58 1019.2
20260509045418 75 158 1.0 2.0 0.00 0.00 0.00 57 1019.2
20260509044420 75 180 3.0 6.0 0.00 0.00 0.00 55 1019.2
20260509043419 75 68 4.0 8.0 0.00 0.00 0.00 56 1019.2
20260509042423 75 90 2.0 3.0 0.00 0.00 0.00 54 1019.2
20260509041418 76 113 1.0 3.0 0.00 0.00 0.00 53 1019.2
20260509040419 75 158 1.0 2.0 0.00 0.00 0.00 53 1019.2
20260509035418 76 135 2.0 3.0 0.00 0.00 0.00 53 1019.2
20260509034419 76 135 2.0 4.0 0.00 0.00 0.00 53 1019.2
20260509033418 75 90 3.0 4.0 0.00 0.00 0.00 54 1019.3
20260509032419 76 135 2.0 3.0 0.00 0.00 0.00 54 1019.3
20260509031423 75 225 4.0 6.0 0.00 0.00 0.00 54 1019.4
20260509030439 74 90 4.0 7.0 0.00 0.00 0.00 54 1019.4
20260509025419 75 90 2.0 4.0 0.00 0.00 0.00 54 1019.5
20260509024419 75 135 3.0 5.0 0.00 0.00 0.00 53 1019.6
20260509023443 75 135 1.0 3.0 0.00 0.00 0.00 54 1019.8
20260509022420 76 113 4.0 7.0 0.00 0.00 0.00 52 1019.9
20260509021418 75 113 2.0 3.0 0.00 0.00 0.00 53 1020.0
20260509020424 75 113 3.0 5.0 0.00 0.00 0.00 53 1020.1
20260509015438 74 158 5.0 8.0 0.00 0.00 0.00 54 1020.3
20260509014419 75 135 3.0 6.0 0.00 0.00 0.00 55 1020.4
20260509013417 74 158 3.0 4.0 0.00 0.00 0.00 55 1020.5
20260509012439 74 158 5.0 8.0 0.00 0.00 0.00 55 1020.6
20260509011423 74 113 5.0 9.0 0.00 0.00 0.00 56 1020.7
20260509010418 74 113 5.0 9.0 0.00 0.00 0.00 57 1020.7
20260509005418 73 90 2.0 6.0 0.00 0.00 0.00 57 1020.8
20260509004423 72 203 4.0 6.0 0.00 0.00 0.00 57 1020.8
20260509003417 72 113 3.0 8.0 0.00 0.00 0.00 56 1021.1
20260509002438 72 203 5.0 7.0 0.00 0.00 0.00 56 1021.1
20260509001423 72 180 4.0 8.0 0.00 0.00 0.00 56 1021.0
20260509000425 72 158 1.0 2.0 0.00 0.00 0.00 56 1021.0
20260508235418 71 180 2.0 4.0 0.00 0.00 0.00 58 1021.0
20260508234438 71 135 6.0 9.0 0.00 0.00 0.00 59 1020.9
20260508233417 70 180 6.0 9.0 0.00 0.00 0.00 59 1020.9
20260508232423 69 203 5.0 7.0 0.00 0.00 0.00 60 1020.8
20260508231428 68 203 4.0 7.0 0.00 0.00 0.00 62 1020.7
20260508230418 68 203 2.0 3.0 0.00 0.00 0.00 66 1020.7
20260508225418 68 158 2.0 4.0 0.00 0.00 0.00 66 1020.6
20260508224438 68 158 4.0 5.0 0.00 0.00 0.00 67 1020.5